Location: *
(49.9853°N, 3.5569°E)
Time: 17:10:01
(UTC+00:00)

Cosmos 1420 Rocket - Pass Details

Date: 22 September 2019
Orbit: 754 x 781 km, 74.0° (Epoch: 22 October)

Event Time Altitude Azimuth Distance (km) Brightness Sun altitude
Rises 19:09:52 0° 177° (S) 3,244 7.0 -14.3°
Reaches altitude 10° 19:12:22 10° 170° (S) 2,324 6.2 -14.7°
Maximum altitude 19:17:13 38° 103° (ESE) 1,176 4.5 -15.4°
Drops below altitude 10° 19:22:07 10° 37° (NE) 2,347 6.3 -16.2°
Sets 19:24:39 0° 30° (NNE) 3,280 7.2 -16.5°
